map of HFA home
HFA - Airport
Location
City:  Haifa, Israel
Name:Haifa International Airport
Old (Alt.):Uri Michaeli Airport
ICAO:LLHA
IATA:HFA

Details
Type:Airport (Aerodrome, Airfield)
Use:Public/Civil, Military, International (customs port of entry)
Latitude:3248'34"N (32.809444)
Longitude:3502'35"E (35.043056)
Datum:WGS 1984
Elevation:28 ft (9 m)
Variation:4.88E (WMM2015v2 magnetic declination)
0.08 annual change
Runways:1
Longest:4324 × 98 ft (1318 × 30 m), paved

Time
Time Zone:UTC+2 (DST+3)
Local Time:

Weather
METAR:LLHA 041350Z 11012KT CAVOK 23/03 Q1018
TAF:LLHA 041101Z 0412/0512 12017KT CAVOK
BECMG 0418/0420 12022KT PROB40 0420/0512 12025G35KT TX22/0412Z TN14/0504Z

Related Locations
Nearby:
Farthest:RVV: 11795 mi / 18982 km
Raivavae, Tubuai Islands, Austral Islands, PF

Find:

   beyond  
but within

Other Information
Maps:
NOTAMs:
Links:
Sources:

  
  • flag of Israel
  • flag of Israeli Air Force
  

Sectional Chart

Flight Planning
at skyvector.com

Satellite Image

Google Maps Satellite view

 

Copyright © 2004-2019 Karl L. Swartz. All rights reserved.
The Great Circle Mapper name and logo are trademarks of the Great Circle Mapper.
All other trademarks mentioned herein belong to their respective owners.
Please see credits for attibutions and further copyright information.

  Follow gcmap on Facebook Follow gcmap on Twitter GCmap on LinkedIn

hCard Microformat

Geo Microformat